KL7GG Weather Reports


Display with metric or nautical units.
time (UTC)temp
F
wind
direction
speed
MPH
gust
MPH
rain 1hr
in
rain 24hr
in
rain mn
in
humidity
%
barometer
mb
20260904023828 60 0 0.0 1.0 0.00 0.00 0.00 61 1017.8
20260904022322 59 0 0.0 0.0 0.00 0.00 0.00 62 1017.9
20260904020819 60 0 0.0 1.0 0.00 0.00 0.00 62 1017.6
20260904015315 61 0 0.0 0.0 0.00 0.00 0.00 58 1017.7
20260904013811 62 0 0.0 0.0 0.00 0.00 0.00 50 1017.6
20260904012306 62 0 0.0 2.0 0.00 0.00 0.00 50 1017.5
20260904010803 63 0 0.0 6.0 0.00 0.00 0.00 47 1017.2
20260904005259 64 0 0.0 1.0 0.00 0.00 0.00 47 1017.1
20260904003756 64 329 3.0 11.0 0.00 0.00 0.00 48 1017.5
20260904000745 65 333 4.0 11.0 0.00 0.00 0.00 51 1017.5
20260903235240 65 0 0.0 12.0 0.00 0.00 0.00 49 1017.2
20260903233735 64 294 3.0 12.0 0.00 0.00 0.00 47 1017.1
20260903232230 64 284 2.0 9.0 0.00 0.00 0.00 46 1017.1
20260903230727 64 0 0.0 4.0 0.00 0.00 0.00 50 1017.0
20260903225221 63 0 0.0 0.0 0.00 0.00 0.00 50 1017.0
20260903223717 63 307 1.0 6.0 0.00 0.00 0.00 51 1017.2
20260903222211 62 0 0.0 3.0 0.00 0.00 0.00 50 1017.3
20260903215203 60 0 0.0 3.0 0.00 0.00 0.00 51 1017.6
20260903213659 60 0 0.0 0.0 0.00 0.00 0.00 51 1017.6
20260903212152 60 0 0.0 0.0 0.00 0.00 0.00 54 1017.6
20260903205144 60 0 0.0 7.0 0.00 0.00 0.00 52 1017.7
20260903200630 58 290 1.0 5.0 0.00 0.00 0.00 53 1017.6
20260903195127 56 0 0.0 1.0 0.00 0.00 0.00 58 1017.4
20260903193622 56 227 1.0 4.0 0.00 0.00 0.00 65 1017.5
20260903192119 55 0 0.0 0.0 0.00 0.00 0.00 64 1017.5
20260903190615 54 0 0.0 2.0 0.00 0.00 0.00 67 1017.5
20260903185110 53 0 0.0 0.0 0.00 0.00 0.00 69 1017.6
20260903183606 51 0 0.0 0.0 0.00 0.00 0.00 77 1017.9
20260903182103 48 0 0.0 1.0 0.00 0.00 0.00 84 1017.9
20260903180559 46 0 0.0 0.0 0.00 0.00 0.00 89 1017.8
20260903175055 45 0 0.0 0.0 0.00 0.00 0.00 90 1017.8
20260903172047 44 0 0.0 1.0 0.00 0.00 0.00 92 1017.7
20260903170542 43 0 0.0 0.0 0.00 0.00 0.00 92 1017.7
20260903165039 41 0 0.0 0.0 0.00 0.00 0.00 91 1017.4
20260903163533 41 0 0.0 0.0 0.00 0.00 0.00 91 1017.2
20260903155020 41 0 0.0 0.0 0.00 0.00 0.00 89 1017.3
20260903153517 41 0 0.0 0.0 0.00 0.00 0.00 91 1017.6
20260903150508 41 0 0.0 0.0 0.00 0.00 0.00 91 1017.5
20260903145004 41 0 0.0 0.0 0.00 0.00 0.00 91 1017.4
20260903143500 41 0 0.0 0.0 0.00 0.00 0.00 92 1017.4
20260903141957 40 0 0.0 0.0 0.00 0.00 0.00 93 1017.5
20260903140452 39 0 0.0 0.0 0.00 0.00 0.00 92 1017.5
20260903134949 39 0 0.0 0.0 0.00 0.00 0.00 91 1017.3
20260903131939 39 0 0.0 0.0 0.00 0.00 0.00 92 1017.4
20260903130435 39 0 0.0 0.0 0.00 0.00 0.00 91 1017.2
20260903123427 39 0 0.0 0.0 0.00 0.00 0.00 90 1017.0
20260903121923 40 0 0.0 0.0 0.00 0.00 0.00 92 1017.1
20260903120418 38 0 0.0 0.0 0.00 0.00 0.00 91 1017.0
20260903114916 39 0 0.0 1.0 0.00 0.00 0.00 91 1017.0
20260903113411 39 0 0.0 0.0 0.00 0.00 0.00 91 1016.9
20260903111907 39 0 0.0 0.0 0.00 0.00 0.00 90 1016.9
20260903110402 41 0 0.0 0.0 0.00 0.00 0.00 91 1016.7
20260903104859 40 0 0.0 4.0 0.00 0.00 0.00 92 1016.6
20260903103355 39 0 0.0 0.0 0.00 0.00 0.00 91 1016.6
20260903101851 39 0 0.0 0.0 0.00 0.00 0.00 90 1016.5
20260903100347 39 0 0.0 0.0 0.00 0.00 0.00 90 1016.5
20260903094842 38 0 0.0 0.0 0.00 0.00 0.00 88 1016.4
20260903093339 39 0 0.0 0.0 0.00 0.00 0.00 89 1016.2
20260903091835 39 0 0.0 0.0 0.00 0.00 0.00 89 1016.4
20260903090333 39 0 0.0 0.0 0.00 0.00 0.00 88 1016.4
20260903084826 40 0 0.0 0.0 0.00 0.00 0.00 89 1016.4
20260903083322 40 0 0.0 0.0 0.00 0.00 0.00 89 1016.1
20260903081818 40 0 0.0 0.0 0.00 0.00 0.00 87 1015.9
20260903080315 41 0 0.0 0.0 0.00 0.00 0.00 88 1015.8
20260903074811 42 0 0.0 0.0 0.00 0.00 0.00 88 1015.6
20260903073307 42 0 0.0 0.0 0.00 0.00 0.00 87 1015.6
20260903071803 42 0 0.0 0.0 0.00 0.00 0.00 86 1015.4
20260903070259 43 0 0.0 0.0 0.00 0.00 0.00 86 1015.0
20260903064755 43 0 0.0 0.0 0.00 0.00 0.00 86 1015.1
20260903063248 44 0 0.0 0.0 0.00 0.00 0.00 84 1015.0
20260903061745 44 0 0.0 0.0 0.00 0.00 0.00 84 1014.8
20260903060240 45 0 0.0 0.0 0.00 0.00 0.00 83 1014.5
20260903053232 47 0 0.0 0.0 0.00 0.00 0.00 80 1014.1
20260903051729 48 0 0.0 0.0 0.00 0.00 0.00 80 1014.0
20260903050225 49 0 0.0 0.0 0.00 0.00 0.00 77 1013.7
20260903044720 50 0 0.0 0.0 0.00 0.00 0.00 76 1013.7
20260903043217 51 0 0.0 0.0 0.00 0.00 0.00 73 1013.5
20260903041713 52 0 0.0 0.0 0.00 0.00 0.00 70 1013.3
20260903040209 53 0 0.0 0.0 0.00 0.00 0.00 65 1013.3
20260903034704 55 0 0.0 0.0 0.00 0.00 0.00 60 1013.2
20260903033200 56 0 0.0 0.0 0.00 0.00 0.00 58 1013.0
20260903031657 58 0 0.0 1.0 0.00 0.00 0.00 54 1012.8